Starlink 32381

operational
NORAD ID: 61066 Int'l Des: 2024-164 Owner: SPXS Country: US Constellation: starlink
LEOCIRCULAR

Über Starlink 32381

Beschreibung wird geladen...

Live-Position

3D-Globus wird geladen...

Nächste Überflüge

Höhenverlauf

Altitude vs Time

uPlot chart will show altitude changes over time

Zweizeiliger Elementsatz

1 61066U 24164S 26036.94262323 -.00000301 00000-0 19510-5 0 9990
2 61066 53.1596 238.8127 0000956 88.1122 271.9988 15.30186714 78615
Epoch: 5. Feb. 2026 • Age: 11 hours

Aktueller Status

Höhe 478.8 km
Geschwindigkeit 7.63 km/s
Subsatellitenpunkt -12.45°S, 52.22°W
Startdatum 13. Sept. 2024
Alter 1.3 years
Typ internet

Technische Details

Klassifizierung Payload
Masse 730.00 kg
Trockenmasse 700.00 kg
Gesamtmasse 730.00 kg
Länge 0.30 m
Durchmesser 4.10 m
Spannweite 29.00 m
Form Box + pan
Hersteller SPXS
Bus-Typ Starlink V2M
Phasenstatus In Orbit
Besitzer/Staat SPXS/US

Große Konstellationen

Loading constellations...